Hourly Data Report for July 05, 2022

MUSKOKA
ONTARIO
Current Station Operator: NAVCAN

44°58'29.000" N
79°18'12.000" W
281.90 m
6115529
71532
YQA

Download Data

Hourly Data (July 2022)
Hourly Data Report for July 5, 2022
TIME
LST
Temp Definition
°C
Dew Point Definition
°C
Rel Hum Definition
%
Precip. Amount Definition
mm

Wind Dir Definition
10's deg

Wind Spd Definition
km/h
Visibility Definition
km
Stn Press Definition
kPa
Hmdx Definition


Wind Chill Definition


Weather Definition


00:00 16.5 14.3 87 0.0 14 5 16.1 98.41     Rain
01:00 16.0 15.2 95 0.5 LegendMM 4 16.1 98.42     Rain
02:00 15.7 15.1 96 1.2 5 5 14.5 98.32     Rain
03:00 15.9 15.0 94 0.2 12 9 16.1 98.23     Rain
04:00 15.8 15.0 95 0.2 10 5 8.1 98.22     Rain, Fog
05:00 15.7 14.8 94 1.0 7 5 11.3 98.14     Rain
06:00 15.5 14.1 91 1.5 11 11 11.3 98.08     Rain
07:00 15.3 14.4 94 2.5 12 11 11.3 98.03     Rain
08:00 15.6 14.4 93 0.2 13 15 16.1 97.97     Rain
09:00 15.8 14.9 94 0.5 14 15 16.1 97.87     Rain
10:00 16.1 15.5 96 0.5 12 11 4.8 97.79     Rain, Fog
11:00 16.8 16.2 96 0.2 11 15 12.9 97.69     LegendNANA
12:00 17.0 16.2 95 0.2 12 13 12.9 97.62     Rain
13:00 17.1 16.5 96 0.2 13 17 4.8 97.56     Rain, Fog
14:00 17.3 16.7 96 0.0 13 15 6.4 97.51     Fog
15:00 17.4 16.9 97 0.5 14 11 3.6 97.50     Rain, Fog
16:00 17.8 17.3 97 0.0   0 4.8 97.46     Fog
17:00 17.9 17.6 98 0.5 LegendMM 4 3.2 97.47     Rain, Fog
18:00 18.1 17.8 98 0.0 33 8 4.8 97.51     Fog
19:00 18.0 17.5 97 0.0 33 15 12.9 97.60     LegendNANA
20:00 17.7 17.2 97 0.0 31 11 16.1 97.63     LegendNANA
21:00 17.8 17.3 97 0.0 32 11 16.1 97.69     LegendNANA
22:00 17.8 17.3 97 0.0 29 9 6.4 97.71     Fog
23:00 17.7 17.2 97 0.2 30 11 9.7 97.74     Fog

Notes on Data Quality.

Legend

  • E = Estimated
  • M = Missing
  • NA = Not Available*
  • [empty] = Indicates an unobserved value
Date modified: